• In Hungary
  • List of Countries
  • For 7 days
  • Water Temperature
  • Satellite Maps
  • Weather Map
  • News
  • Weather Widgets
  • user-avatar
    Login

    Hourly Weather Alexandria

    Today, 20 September, Thursday

    Time Temperature Precipitation Wind Pressure Humidity
    00:00 +20°C° 0 mm 1 mps 756 mmHg 52%
    01:00 +20°C° 0 mm 1 mps 756 mmHg 54%
    02:00 +19°C° 0 mm 2 mps 755 mmHg 53%
    03:00 +20°C° 0 mm 1 mps 755 mmHg 55%
    04:00 +19°C° 0 mm 1 mps 755 mmHg 57%
    05:00 +19°C° 0 mm 1 mps 755 mmHg 59%
    06:00 +19°C° 0 mm 2 mps 756 mmHg 56%
    07:00 +21°C° 0 mm 2 mps 756 mmHg 54%
    08:00 +23°C° 0 mm 2 mps 756 mmHg 51%
    09:00 +25°C° 0 mm 2 mps 756 mmHg 46%
    10:00 +26°C° 0 mm 2 mps 756 mmHg 42%
    11:00 +28°C° 0 mm 2 mps 755 mmHg 37%
    12:00 +28°C° 0 mm 2 mps 755 mmHg 35%
    13:00 +29°C° 0 mm 3 mps 755 mmHg 33%
    14:00 +30°C° 0 mm 3 mps 755 mmHg 32%
    15:00 +29°C° 0 mm 2 mps 754 mmHg 34%
    16:00 +28°C° 0 mm 2 mps 754 mmHg 37%
    17:00 +27°C° 0 mm 2 mps 754 mmHg 40%
    18:00 +26°C° 0 mm 2 mps 754 mmHg 43%
    19:00 +24°C° 0 mm 1 mps 754 mmHg 46%
    20:00 +23°C° 0 mm 1 mps 754 mmHg 49%
    21:00 +22°C° 0 mm 1 mps 754 mmHg 51%
    22:00 +22°C° 0 mm 1 mps 754 mmHg 52%
    23:00 +21°C° 0 mm 1 mps 754 mmHg 54%

    Tomorrow, 21 September, Friday

    Time Temperature Precipitation Wind Pressure Humidity
    00:00 +21°C° 0 mm 1 mps 754 mmHg 56%
    01:00 +21°C° 0 mm 1 mps 754 mmHg 58%
    02:00 +20°C° 0 mm 1 mps 754 mmHg 60%
    03:00 +20°C° 0 mm 1 mps 754 mmHg 63%
    04:00 +19°C° 0 mm 1 mps 754 mmHg 65%
    05:00 +19°C° 0 mm 1 mps 755 mmHg 68%
    06:00 +20°C° 0 mm 1 mps 755 mmHg 65%
    07:00 +22°C° 0 mm 1 mps 755 mmHg 62%
    08:00 +23°C° 0 mm 1 mps 755 mmHg 59%
    09:00 +25°C° 0 mm 1 mps 755 mmHg 54%
    10:00 +26°C° 0 mm 1 mps 755 mmHg 49%
    11:00 +28°C° 0 mm 2 mps 755 mmHg 45%
    12:00 +28°C° 0 mm 2 mps 755 mmHg 42%
    13:00 +29°C° 0 mm 2 mps 754 mmHg 39%
    14:00 +29°C° 0 mm 2 mps 754 mmHg 36%
    15:00 +29°C° 0 mm 1 mps 754 mmHg 37%
    16:00 +28°C° 0 mm 1 mps 753 mmHg 39%
    17:00 +28°C° 0 mm 1 mps 753 mmHg 41%
    18:00 +26°C° 0 mm 1 mps 753 mmHg 44%
    19:00 +25°C° 0 mm 1 mps 753 mmHg 46%
    20:00 +24°C° 0 mm 1 mps 754 mmHg 49%
    21:00 +23°C° 0 mm 1 mps 754 mmHg 50%
    22:00 +23°C° 0 mm 1 mps 754 mmHg 51%
    23:00 +22°C° 0 mm 1 mps 754 mmHg 52%

    Day after tomorrow, 22 September, Saturday

    Time Temperature Precipitation Wind Pressure Humidity
    00:00 +22°C° 0 mm 1 mps 753 mmHg 54%
    01:00 +22°C° 0 mm 1 mps 753 mmHg 55%
    02:00 +21°C° 0 mm 1 mps 753 mmHg 56%
    03:00 +21°C° 0 mm 1 mps 753 mmHg 57%
    04:00 +21°C° 0 mm 1 mps 753 mmHg 58%
    05:00 +20°C° 0 mm 1 mps 753 mmHg 59%
    06:00 +22°C° 0 mm 1 mps 753 mmHg 56%
    07:00 +23°C° 0 mm 2 mps 753 mmHg 53%
    08:00 +24°C° 0 mm 2 mps 753 mmHg 49%
    09:00 +26°C° 0 mm 2 mps 753 mmHg 44%
    10:00 +28°C° 0 mm 2 mps 753 mmHg 40%
    11:00 +29°C° 0 mm 3 mps 753 mmHg 35%
    12:00 +30°C° 0 mm 3 mps 752 mmHg 33%
    13:00 +30°C° 0 mm 3 mps 752 mmHg 31%
    14:00 +31°C° 0 mm 3 mps 751 mmHg 29%
    15:00 +30°C° 0 mm 3 mps 751 mmHg 31%
    16:00 +29°C° 0 mm 2 mps 751 mmHg 33%
    17:00 +28°C° 0 mm 2 mps 750 mmHg 36%
    18:00 +27°C° 0 mm 2 mps 750 mmHg 38%
    19:00 +26°C° 0 mm 2 mps 750 mmHg 39%
    20:00 +24°C° 0 mm 2 mps 750 mmHg 41%
    21:00 +24°C° 0 mm 3 mps 750 mmHg 43%
    22:00 +22°C° 0 mm 3 mps 750 mmHg 45%
    23:00 +21°C° 0 mm 3 mps 749 mmHg 47%

    23 September, Sunday

    Time Temperature Precipitation Wind Pressure Humidity
    00:00 +21°C° 0 mm 4 mps 749 mmHg 49%
    01:00 +21°C° 0 mm 4 mps 749 mmHg 51%
    02:00 +20°C° 0 mm 5 mps 749 mmHg 54%
    03:00 +17°C° 0.1 mm 6 mps 750 mmHg 61%
    04:00 +15°C° 0.1 mm 6 mps 750 mmHg 68%
    05:00 +12°C° 0.1 mm 7 mps 750 mmHg 75%
    06:00 +12°C° 0.4 mm 7 mps 751 mmHg 75%
    07:00 +11°C° 0.4 mm 7 mps 751 mmHg 75%
    08:00 +10°C° 0.4 mm 7 mps 752 mmHg 75%
    09:00 +11°C° 0 mm 7 mps 752 mmHg 68%
    10:00 +14°C° 0 mm 7 mps 752 mmHg 60%
    11:00 +15°C° 0 mm 7 mps 753 mmHg 53%
    12:00 +16°C° 0 mm 6 mps 753 mmHg 49%
    13:00 +17°C° 0 mm 6 mps 753 mmHg 46%
    14:00 +19°C° 0 mm 6 mps 753 mmHg 42%
    15:00 +19°C° 0 mm 5 mps 753 mmHg 43%
    16:00 +18°C° 0 mm 4 mps 753 mmHg 45%
    17:00 +18°C° 0 mm 4 mps 753 mmHg 46%
    18:00 +17°C° 0 mm 3 mps 753 mmHg 49%
    19:00 +15°C° 0 mm 2 mps 753 mmHg 53%
    20:00 +14°C° 0 mm 2 mps 753 mmHg 56%
    21:00 +14°C° 0 mm 1 mps 753 mmHg 58%
    22:00 +14°C° 0 mm 1 mps 754 mmHg 59%
    23:00 +13°C° 0 mm 1 mps 754 mmHg 60%

    24 September, Monday

    Time Temperature Precipitation Wind Pressure Humidity
    00:00 +13°C° 0 mm 2 mps 753 mmHg 61%
    01:00 +13°C° 0 mm 2 mps 753 mmHg 61%
    02:00 +13°C° 0 mm 2 mps 753 mmHg 62%
    03:00 +12°C° 0 mm 3 mps 752 mmHg 60%
    04:00 +12°C° 0 mm 4 mps 752 mmHg 58%
    05:00 +13°C° 0 mm 4 mps 751 mmHg 56%
    06:00 +14°C° 0 mm 6 mps 751 mmHg 52%
    07:00 +15°C° 0 mm 7 mps 750 mmHg 48%
    08:00 +16°C° 0 mm 9 mps 750 mmHg 44%
    09:00 +18°C° 0 mm 9 mps 749 mmHg 42%
    10:00 +19°C° 0 mm 10 mps 749 mmHg 41%
    11:00 +21°C° 0 mm 11 mps 748 mmHg 39%
    12:00 +22°C° 0 mm 11 mps 747 mmHg 40%
    13:00 +23°C° 0 mm 11 mps 746 mmHg 41%
    14:00 +24°C° 0 mm 11 mps 745 mmHg 41%
    15:00 +23°C° 0.2 mm 10 mps 745 mmHg 47%
    16:00 +22°C° 0.2 mm 10 mps 745 mmHg 52%
    17:00 +21°C° 0.2 mm 9 mps 745 mmHg 58%
    18:00 +18°C° 1.3 mm 9 mps 746 mmHg 63%
    19:00 +15°C° 1.3 mm 8 mps 747 mmHg 68%
    20:00 +12°C° 1.3 mm 7 mps 748 mmHg 73%
    21:00 +11°C° 0 mm 7 mps 748 mmHg 72%
    22:00 +11°C° 0 mm 6 mps 749 mmHg 72%
    23:00 +10°C° 0 mm 6 mps 749 mmHg 72%

    25 September, Tuesday

    Time Temperature Precipitation Wind Pressure Humidity
    00:00 +10°C° 0 mm 6 mps 750 mmHg 73%
    01:00 +9°C° 0 mm 6 mps 750 mmHg 73%
    02:00 +9°C° 0 mm 6 mps 751 mmHg 74%
    03:00 +9°C° 0 mm 5 mps 751 mmHg 75%
    04:00 +8°C° 0 mm 5 mps 752 mmHg 77%
    05:00 +8°C° 0 mm 5 mps 752 mmHg 78%
    06:00 +8°C° 0 mm 6 mps 752 mmHg 74%
    07:00 +9°C° 0 mm 6 mps 753 mmHg 70%
    08:00 +9°C° 0 mm 7 mps 753 mmHg 65%
    09:00 +10°C° 0 mm 7 mps 754 mmHg 59%
    10:00 +11°C° 0 mm 7 mps 754 mmHg 53%
    11:00 +12°C° 0 mm 7 mps 754 mmHg 46%
    12:00 +12°C° 0 mm 7 mps 754 mmHg 43%
    13:00 +14°C° 0 mm 7 mps 754 mmHg 40%
    14:00 +14°C° 0 mm 7 mps 754 mmHg 38%
    15:00 +14°C° 0 mm 6 mps 754 mmHg 39%
    16:00 +13°C° 0 mm 5 mps 755 mmHg 41%
    17:00 +13°C° 0 mm 4 mps 755 mmHg 42%
    18:00 +12°C° 0 mm 4 mps 755 mmHg 44%
    19:00 +12°C° 0 mm 3 mps 756 mmHg 46%
    20:00 +11°C° 0 mm 3 mps 756 mmHg 47%
    21:00 +11°C° 0 mm 3 mps 756 mmHg 49%
    22:00 +10°C° 0 mm 3 mps 757 mmHg 51%
    23:00 +10°C° 0 mm 3 mps 757 mmHg 53%
    Show more